Back to catalog

STARLINK-4476

AliveCommunicationsVLEO
NORAD 53419·PAYLOAD·🇺🇸 United States

Launched Aug 10, 2022 from Cape Canaveral Space Force Station

Loading…

Next Passes (next 24 hours)

TLE

FreshSource: CelesTrak SupGP

Epoch: Sep 14, 2026, 14:47 UTC

1 53419C 22097AH  26257.61645833  .00034805  00000+0  10285-2 0  2574
2 53419  53.1593 335.5619 0001319  69.9632  12.5354 15.34367051    17

Track STARLINK-4476 in real time with AllMySat

Download on the App Store